Regional Weather Roundup
Issued by NWS Newport/Morehead, NC

Current Version | Previous Version | Text Only | Print | Product List | Glossary On
Versions: 1 2 3 4 5 6 7 8 9 10 11 12 13 14 15 16 17 18 19 20 21 22 23 24 25 26 27 28 29 30 31 32 33 34 35 36 37 38 39 40 41 42 43 44 45 46 47 48 49 50
000
ASUS42 KMHX 301024
RWRMHX
WEATHER ROUNDUP FOR EASTERN NORTH CAROLINA
NATIONAL WEATHER SERVICE NEWPORT/MOREHEAD CITY NC
600 AM EDT MON MAR 30 2015

NOTE: "FAIR" INDICATES FEW OR NO CLOUDS BELOW 12,000 FEET
WITH NO SIGNIFICANT WEATHER AND/OR OBSTRUCTIONS TO VISIBILITY

NCZ015>017-031-032-045>047-102-103-301100-
NORTH COAST

CITY           SKY/WX    TMP DP  RH WIND       PRES   REMARKS
EDENTON        MOCLDY    41  31  66 SW12      30.15S
ELIZABETH CITY PTCLDY    42  29  59 S14       30.13F
KITTY HAWK     SUNNY     42  32  67 SW9       30.14F
MANTEO         CLEAR     42  32  67 SW17      30.16S

$$

NCZ045>047-081-094-103-104-301100-
CENTRAL COAST

CITY           SKY/WX    TMP DP  RH WIND       PRES   REMARKS
FRISCO         FAIR      48  26  42 SW12G17   30.19F
SWANQUARTER      N/A     48 N/A N/A SW14G23   30.15S

$$

NCZ095-097-098-100-101-301100-
SOUTHERN COAST

CITY           SKY/WX    TMP DP  RH WIND       PRES   REMARKS
BEAUFORT       CLEAR     48  35  60 SW13      30.19F
CEDAR ISLAND     N/A     43 N/A N/A S7        30.21F
JACKSONVILLE   CLEAR     39  27  62 SW3       30.19S
PINEY ISLAND   SUNNY    N/A N/A N/A S6        30.19F
WILMINGTON     CLEAR     35  31  85 CALM      30.19F


$$

NCZ011>013-027>030-043-044-078>080-089-090>093-098-301100-
COASTAL PLAIN

CITY           SKY/WX    TMP DP  RH WIND       PRES   REMARKS
AHOSKIE        CLOUDY    40  24  53 S6        30.11F
CLINTON        CLEAR     40  32  75 S5        30.16F
ELIZABETHTOWN  PTCLDY    42  32  67 S6        30.17F
GOLDSBORO      CLEAR     40  39  96 S6        30.13F
GREENVILLE     MOCLDY    39  30  70 SW8       30.16F
HAVELOCK       CLEAR     31  27  85 CALM      30.20F
KENANSVILLE    PTCLDY    38  31  77 CALM      30.17F
KINSTON        PTCLDY    40  31  70 S8        30.17F
NEW BERN       CLEAR     40  27  59 SW8       30.20S
RICHLANDS      CLEAR     34  27  75 S7        30.19S
ROCKY MOUNT    CLOUDY    41  28  60 S12       30.11F
WASHINGTON     CLOUDY    38  27  66 S7        30.16F
WHITEVILLE     PTCLDY    40  32  73 SW6       30.17F

$$

AMZ130-135-150-152-154-156-158-170-250-252-270-ANZ085-086-088-633-658-670-301100-
MARINE OBSERVATIONS

STATION/POSITION TIME  TEMP    WIND        PRES    WAVE   SWELL
                       AIR SEA DIR/SP/G            HT/PER HT/PER
                 (UTC) (F)     (DEG/KT/KT) (MB)    (FT/S) (FT/S)
CHESAPEAKE LIGHT 1000   42     200/ 22/ 23 1019.5
64 E VA BEACH    0950   47 52  220/ 19/ 23 1019.8    5/10   3/10
DUCK             1000   44 42  200/ 16/ 22 1019.5
2 E DUCK         0911      42                N/A     3/10   2/11
10 NE DUCK       NOT AVBL
OREGON INLET     1000   46 45  200/ 16/ 19 1021.2
HATTERAS CG      1000   50 49  230/ 13/ 18 1022.5
CAPE LOOKOUT     1000   51     220/  8/ 12 1022.4
BEAUFORT LAB     1000   50 53  220/  6/ 12 1021.4
27 SE WRIGHTSVLE 1000   53 64  240/ 14/ 17 1023.6
5 SE WRIGHTSVLE  1000   54 55  230/ 16/ 19 1022.3
225 S CAPE HAT   0950   54 67  250/  4/  8 1025.4    6/ 8   5/ 8
41 SE CHARLESTON 0950   60 68  230/ 14/ 17 1023.0    3/ 9   2/ 9

$$



USA.gov is the U.S. government's official web portal to all federal, state and local government web resources and services.